Starlink 2644

operational
NORAD ID: 48442 Int'l Des: 2021-040 Owner: SPXS Country: US Constellation: starlink
LEOCIRCULARSTARLINK_TYPE

关于 Starlink 2644

正在加载描述...

实时位置

正在加载3D地球...

即将过境

高度历史

Altitude vs Time

uPlot chart will show altitude changes over time

两行轨道根数

1 48442U 21040Q 25299.65332459 -.00002809 00000-0 -16983-3 0 9994
2 48442 53.0547 63.3322 0001186 90.3209 269.7916 15.06389328246429
Epoch: Oct 26, 2025 • Age: 10 hours

当前状态

高度 552.9 km
速度 7.59 km/s
星下点 52.76°N, 81.42°E
发射日期 May 9, 2021
运行时间 4.4 years
类型 internet

技术详情

分类 Payload
质量 260.00 kg
干质量 248.00 kg
总质量 260.00 kg
长度 0.20 m
直径 2.80 m
跨度 9.00 m
形状 Box + pan
制造商 SPXS
平台类型 Starlink
阶段状态 In Orbit
所有者/国家 SPXS/US

大型星座

Loading constellations...